[[{"header":{"parameterUnit":"m.s-1","parameterCategory":1,"la1":30.2991,"la2":30.254,"lo1":-89.0895,"lo2":-89.0444,"dy":0.0017,"dx":0.0017,"nx":28,"ny":28,"refTime":"2024-03-04T03:00:00:Z","depth":0,"parameterNumber":2,"parameterNumberName":"U-component_of_WINDS"},"data":[0,0,0,0,0,0,0,0,0,0,0,0,0,0,0,0,0,0,0,0,0,0,0,0,0,0,0,0,0,0,0,0,0,0,0,0,0,0,0,0,0,0,0,0,0,0,0,0,0,0,0,0,0,0,0,0,0,0,-4.2629,-4.263,0,-4.2706,-4.2707,-4.2708,-4.2614,-4.261,-4.2607,-4.2604,-4.2683,-4.2688,-4.2694,0,0,0,0,0,0,0,0,0,0,0,0,0,-4.2402,-4.2407,-4.2629,-4.263,-4.2631,-4.2706,-4.2707,-4.2708,-4.2615,-4.261,-4.2606,-4.2602,-4.2682,-4.2688,-4.2694,0,0,0,0,0,0,0,0,0,0,0,0,0,-4.2492,-4.2408,-4.2629,-4.2593,-4.2591,-4.2706,-4.2707,-4.2709,-4.2615,-4.261,-4.2605,-4.26,-4.2679,-4.2687,-4.2695,-4.2849,0,0,-4.272,-4.2723,0,0,0,0,0,0,0,0,-4.2487,-4.2501,-4.2598,-4.2596,-4.2593,-4.2645,-4.2656,-4.2756,-4.2617,-4.2606,-4.2604,-4.2598,-4.2675,-4.2683,-4.2709,-4.2853,-4.2856,-4.272,-4.2725,-4.2729,-4.2731,0,0,0,0,0,0,0,-4.2481,-4.2497,-4.266,-4.2599,-4.2597,-4.2574,-4.2581,-4.2675,-4.2669,-4.2607,-4.26,-4.261,-4.2673,-4.2701,-4.271,-4.2858,-4.272,-4.2727,-4.2732,-4.2735,-4.3133,-4.3139,0,0,0,0,0,0,-4.2479,-4.2492,-4.2657,-4.2662,-4.2526,-4.2582,-4.259,-4.2634,-4.2668,-4.2668,-4.2615,-4.2606,-4.269,-4.2701,-4.2713,-4.2895,-4.2729,-4.2736,-4.2741,-4.3128,-4.3135,-4.3141,0,0,0,0,0,0,-4.2474,-4.2495,-4.2654,-4.2576,-4.2594,-4.2592,-4.2642,-4.2638,-4.2667,-4.2674,-4.2672,-4.2645,-4.2686,-4.2701,-4.2816,-4.2897,-4.274,-4.2747,-4.3121,-4.313,-4.3138,-4.3263,0,0,0,0,0,0,-4.2468,-4.2493,-4.2551,-4.2577,-4.2599,-4.2756,-4.2647,-4.2643,-4.2681,-4.267,-4.2702,-4.2702,-4.2684,-4.2805,-4.2824,-4.2905,-4.2753,-4.3114,-4.3125,-4.3135,-4.3251,-4.3275,-4.3294,0,0,0,0,0,-4.2461,-4.2583,-4.2555,-4.2575,-4.2671,-4.2761,-4.2773,-4.2749,-4.2688,-4.2746,-4.2751,-4.2701,-4.2885,-4.2817,-4.2838,-4.2923,-4.3108,-4.3122,-4.3134,-4.3242,-4.327,-4.3294,0,0,0,0,0,0,-4.2567,-4.2586,-4.2555,-4.2689,-4.2725,-4.2745,-4.2818,-4.278,-4.2833,-4.2821,-4.2789,-4.2797,-4.292,-4.2933,-4.2857,-4.3075,-4.2987,-4.3005,-4.3061,-4.3088,-4.3109,-4.3103,-4.276,0,0,0,0,0,-4.2606,-4.2677,-4.269,-4.2808,-4.2827,-4.282,-4.2859,-4.2837,-4.2872,-4.2887,-4.29,-4.2936,-4.3002,-4.3046,-4.3107,-4.3253,-4.3259,-4.3322,-4.3344,-4.3361,-4.3377,-4.3456,-4.3484,-4.3183,-4.3183,-4.3183,0,0,-4.2687,-4.2707,-4.2753,-4.283,-4.2854,-4.293,-4.2833,-4.2916,-4.2972,-4.2899,-4.3008,-4.302,-4.3058,-4.319,-4.3249,-4.3205,-4.3462,-4.3378,-4.3392,-4.3398,-4.3472,-4.3501,-4.3526,-4.3192,-4.3191,-4.3189,0,0,-4.2873,-4.2896,-4.2996,-4.3023,-4.3062,-4.3057,-4.3081,-4.3108,-4.3113,-4.3223,-4.317,-4.3236,-4.335,-4.338,-4.341,-4.3611,-4.3567,-4.3632,-4.3744,-4.3821,-4.3845,-4.3866,-4.3937,-4.3963,-4.3647,-4.3648,-4.3648,0,-4.2969,-4.308,-4.3053,-4.314,-4.3176,-4.3114,-4.3217,-4.3244,-4.3301,-4.3328,-4.3278,-4.3421,-4.3443,-4.3581,-4.363,-4.3657,-4.3684,-4.3627,-4.3844,-4.3864,-4.3883,-4.3951,-4.3978,-4.3655,-4.3655,-4.3654,-4.3653,0,-4.3196,-4.3274,-4.3351,-4.3408,-4.3452,-4.3547,-4.3535,-4.3583,-4.3559,-4.356,-4.3673,-4.3697,-4.3762,-4.3794,-4.3771,-4.3929,-4.3901,-4.3849,-4.3759,-4.392,-4.3983,-4.4009,-4.3666,-4.3664,-4.3661,-4.3659,0,0,-4.3449,-4.3491,-4.352,-4.3546,-4.3585,-4.3645,-4.3737,-4.3801,-4.3844,-4.3886,-4.3963,-4.4062,-4.4014,-4.4049,-4.4029,-4.4098,-4.4255,-4.4036,-4.4037,-4.4076,-4.4432,-4.4471,-4.4501,-4.4227,-4.4232,-4.4236,-4.4429,0,-4.3636,-4.3795,-4.3774,-4.3928,-4.3999,-4.3944,-4.4024,-4.4058,-4.4061,-4.4123,-4.4127,-4.4198,-4.413,-4.415,-4.4216,-4.4222,-4.4326,-4.4208,-4.4298,-4.4302,-4.4289,-4.4534,-4.4575,-4.4755,-4.4453,-4.4457,-4.446,0,-4.3873,-4.3925,-4.4085,-4.4115,-4.4144,-4.4217,-4.4275,-4.4335,-4.4372,-4.437,-4.441,-4.4379,-4.4472,-4.4383,-4.4512,-4.4432,-4.4468,-4.4478,-4.4484,-4.449,-4.439,-4.4547,-4.4812,-4.4839,-4.4499,-4.4496,-4.4493,0,-4.4041,-4.4151,-4.4261,-4.4285,-4.4322,-4.4375,-4.4393,-4.4425,-4.4465,-4.4517,-4.4543,-4.4604,-4.4638,-4.4687,-4.4673,-4.4609,-4.4806,-4.4715,-4.4807,-4.4807,-4.4849,-4.4846,-4.5124,-4.4875,-4.4874,-4.4874,-4.4873,0,-4.4251,-4.4351,-4.4337,-4.4405,-4.4516,-4.4492,-4.4603,-4.4614,-4.4644,-4.4714,-4.467,-4.4736,-4.4715,-4.4781,-4.4771,-4.488,-4.4895,-4.4896,-4.4892,-4.49,-4.49,-4.4922,-4.4909,-4.4881,-4.4879,-4.4878,-4.4877,0,-4.4456,-4.4451,-4.4567,-4.4594,-4.4603,-4.4684,-4.4707,-4.4771,-4.4772,-4.4861,-4.488,-4.4882,-4.4957,-4.4949,-4.5033,-4.5027,-4.5161,-4.5143,-4.5149,-4.5144,-4.5236,-4.5228,-4.5537,-4.5576,-4.5303,-4.5305,-4.5307,0,-4.459,-4.4665,-4.4701,-4.4744,-4.4766,-4.4837,-4.4878,-4.4859,-4.4903,-4.4953,-4.5012,-4.5083,-4.5139,-4.5262,-4.5271,-4.5336,-4.5318,-4.5422,-4.5327,-4.5332,-4.5319,-4.5314,-4.5321,-4.544,-4.5443,-4.5446,-4.5448,0,-4.4827,-4.4821,-4.4882,-4.4943,-4.4994,-4.5041,-4.5083,-4.5122,-4.5107,-4.516,-4.5236,-4.528,-4.5366,-4.5438,-4.55,-4.5519,-4.5482,-4.5478,-4.5502,-4.551,-4.551,-4.5511,-4.5199,-4.547,-4.5468,-4.5466,-4.5465,-4.5464,-4.5,-4.5065,-4.51,-4.517,-4.52,-4.5242,-4.5304,-4.5313,-4.5376,-4.5445,-4.543,-4.5517,-4.5554,-4.5633,-4.5659,-4.5727,-4.5689,-4.5724,-4.5733,-4.5742,-4.5753,-4.5501,-4.5738,-4.5737,-4.5737,-4.5736,-4.5736,0,-4.5234,-4.5254,-4.5319,-4.538,-4.5436,-4.5397,-4.5443,-4.5492,-4.5568,-4.5606,-4.5662,-4.5751,-4.5821,-4.5837,-4.5904,-4.5955,-4.594,-4.5973,-4.5969,-4.5974,-4.5783,-4.5755,-4.5985,-4.5985,-4.5985,-4.5985,-4.5984,-4.5984,-4.5362,-4.547,-4.5469,-4.5593,-4.5613,-4.5697,-4.5726,-4.5765,-4.5795,-4.5896,-4.5954,-4.5964,-4.5993,-4.6063,-4.6125,-4.6128,-4.6155,-4.6195,-4.6191,-4.6012,-4.5987,-4.5963,-4.5937,-4.6201,-4.6201,-4.6376,-4.6378,-4.6379]},{"header":{"parameterUnit":"m.s-1","parameterCategory":1,"la1":30.2991,"la2":30.254,"lo1":-89.0895,"lo2":-89.0444,"dy":0.0017,"dx":0.0017,"nx":28,"ny":28,"refTime":"2024-03-04T03:00:00:Z","depth":0,"parameterNumber":3,"parameterNumberName":"V-component_of_WINDS"},"data":[0,0,0,0,0,0,0,0,0,0,0,0,0,0,0,0,0,0,0,0,0,0,0,0,0,0,0,0,0,0,0,0,0,0,0,0,0,0,0,0,0,0,0,0,0,0,0,0,0,0,0,0,0,0,0,0,0,0,0.9528,0.9529,0,0.9607,0.9608,0.9609,0.966,0.966,0.966,0.9661,0.9737,0.9739,0.9741,0,0,0,0,0,0,0,0,0,0,0,0,0,0.9421,0.9422,0.9528,0.9529,0.953,0.9607,0.9608,0.9609,0.966,0.966,0.966,0.9661,0.9737,0.9739,0.9741,0,0,0,0,0,0,0,0,0,0,0,0,0,0.948,0.9423,0.9528,0.9565,0.9569,0.9607,0.9608,0.9609,0.9659,0.966,0.966,0.9661,0.9736,0.9739,0.9741,0.9747,0,0,0.9749,0.975,0,0,0,0,0,0,0,0,0.9476,0.9484,0.9558,0.9562,0.9567,0.9624,0.9598,0.9655,0.9659,0.9625,0.9661,0.9661,0.9699,0.9705,0.9718,0.9751,0.9754,0.9749,0.9751,0.9752,0.9753,0,0,0,0,0,0,0,0.9472,0.9481,0.9559,0.9559,0.9565,0.9577,0.9586,0.9609,0.9658,0.9628,0.9632,0.9641,0.9701,0.9716,0.972,0.9755,0.9749,0.9752,0.9753,0.9754,0.9799,0.9799,0,0,0,0,0,0,0.9463,0.9477,0.9557,0.9562,0.9522,0.9578,0.9589,0.9605,0.9658,0.9667,0.964,0.9643,0.9711,0.9717,0.9723,0.9735,0.9752,0.9755,0.9756,0.98,0.9799,0.9799,0,0,0,0,0,0,0.946,0.9469,0.9554,0.9521,0.9532,0.958,0.9598,0.9606,0.9621,0.9667,0.9676,0.9646,0.9712,0.972,0.9742,0.9739,0.9756,0.9758,0.98,0.98,0.9799,0.9758,0,0,0,0,0,0,0.9457,0.9468,0.9471,0.952,0.9534,0.9571,0.9598,0.9608,0.9626,0.963,0.9675,0.9683,0.9713,0.9738,0.9744,0.9743,0.976,0.9801,0.98,0.9799,0.976,0.9757,0.9753,0,0,0,0,0,0.9453,0.9455,0.9471,0.948,0.9539,0.9571,0.9578,0.9614,0.9625,0.9628,0.9659,0.9681,0.9738,0.9739,0.9747,0.9746,0.9801,0.98,0.9799,0.9762,0.9757,0.9753,0,0,0,0,0,0,0.9403,0.9462,0.948,0.9499,0.953,0.9579,0.9584,0.9607,0.9635,0.9637,0.9679,0.9689,0.9707,0.9729,0.9729,0.9756,0.9772,0.9773,0.9741,0.9737,0.9734,0.9728,0.9762,0,0,0,0,0,0.9394,0.9416,0.9467,0.9478,0.9493,0.9536,0.9551,0.9576,0.9609,0.9622,0.9654,0.9684,0.9709,0.9724,0.975,0.9764,0.9775,0.9767,0.9764,0.9761,0.9761,0.9772,0.9769,0.9796,0.9796,0.9796,0,0,0.9376,0.9411,0.9422,0.9469,0.9496,0.9517,0.9546,0.9567,0.9584,0.9625,0.9648,0.9673,0.9709,0.9728,0.9738,0.9747,0.9756,0.976,0.9757,0.9759,0.9771,0.9768,0.9766,0.9796,0.9796,0.9796,0,0,0.9354,0.9383,0.9396,0.9423,0.9464,0.9493,0.9497,0.9544,0.9562,0.9587,0.9619,0.9638,0.968,0.9705,0.9724,0.9714,0.9736,0.9721,0.9703,0.9713,0.9711,0.9709,0.9707,0.9705,0.9721,0.9721,0.9721,0,0.9326,0.936,0.94,0.942,0.944,0.948,0.9495,0.9518,0.9565,0.9577,0.9588,0.9643,0.967,0.9696,0.9694,0.9707,0.9712,0.9716,0.9708,0.9707,0.9706,0.9704,0.9703,0.9719,0.9719,0.972,0.972,0,0.9324,0.9348,0.9354,0.94,0.9421,0.9437,0.948,0.9496,0.952,0.9548,0.9573,0.9608,0.9642,0.965,0.9672,0.9679,0.9684,0.9701,0.9718,0.9701,0.97,0.9699,0.9716,0.9717,0.9718,0.9718,0,0,0.9271,0.9341,0.9343,0.9365,0.9414,0.9433,0.9452,0.9487,0.95,0.9532,0.9549,0.9585,0.9601,0.9622,0.9648,0.9657,0.9648,0.9673,0.9674,0.9667,0.966,0.9647,0.9645,0.9664,0.9664,0.9664,0.9657,0,0.9257,0.9295,0.9332,0.9356,0.9379,0.9419,0.9436,0.9467,0.9495,0.9518,0.9548,0.9573,0.9592,0.9605,0.9616,0.9647,0.9647,0.9648,0.968,0.9681,0.9669,0.9645,0.9631,0.9623,0.9657,0.9657,0.9657,0,0.9245,0.9276,0.9303,0.9353,0.9364,0.9378,0.9414,0.9436,0.9473,0.9493,0.9517,0.9545,0.9568,0.9583,0.9614,0.9614,0.963,0.9647,0.9648,0.9652,0.9667,0.9648,0.9621,0.962,0.9656,0.9656,0.9656,0,0.9204,0.9253,0.9276,0.9294,0.9352,0.9361,0.9386,0.9424,0.9443,0.9475,0.9488,0.952,0.9538,0.9563,0.9599,0.9607,0.9627,0.9645,0.9644,0.9643,0.9646,0.9645,0.9621,0.9656,0.9656,0.9656,0.9656,0,0.9184,0.9199,0.9259,0.9273,0.9292,0.9335,0.9352,0.9379,0.9413,0.9434,0.9469,0.9487,0.9534,0.9558,0.9586,0.9609,0.9616,0.9633,0.964,0.9629,0.9627,0.964,0.9641,0.9655,0.9655,0.9656,0.9656,0,0.9141,0.9182,0.921,0.9264,0.9278,0.9289,0.9334,0.9349,0.938,0.9405,0.9413,0.946,0.949,0.9529,0.9571,0.959,0.9609,0.962,0.9597,0.9601,0.9598,0.9598,0.958,0.9581,0.9615,0.9615,0.9614,0,0.9126,0.9139,0.9194,0.9211,0.9235,0.9261,0.9282,0.9326,0.9345,0.9391,0.94,0.9434,0.9462,0.9508,0.9546,0.9578,0.959,0.9582,0.9595,0.9585,0.9591,0.959,0.9592,0.9579,0.9578,0.9577,0.9577,0,0.9094,0.9115,0.9144,0.918,0.9205,0.9235,0.9267,0.9278,0.9329,0.9349,0.9381,0.9404,0.9448,0.948,0.9518,0.9542,0.9568,0.9573,0.9575,0.9564,0.955,0.9558,0.9588,0.9573,0.9573,0.9574,0.9574,0.9574,0.9065,0.9079,0.9121,0.9153,0.9182,0.9212,0.923,0.9263,0.9291,0.9331,0.9355,0.9386,0.9425,0.9479,0.9503,0.9528,0.9537,0.9539,0.954,0.954,0.9537,0.9546,0.9534,0.9535,0.9535,0.9535,0.9535,0,0.9036,0.9066,0.9095,0.914,0.9165,0.9189,0.9226,0.9245,0.9273,0.9307,0.9336,0.9373,0.9406,0.9447,0.9482,0.9494,0.9507,0.9502,0.9501,0.9506,0.9525,0.9521,0.9491,0.9491,0.9491,0.9491,0.9491,0.9491,0.9024,0.9049,0.9075,0.9116,0.9145,0.9177,0.9197,0.9225,0.9253,0.9294,0.9321,0.9349,0.9386,0.9425,0.9456,0.9467,0.9478,0.947,0.9484,0.9501,0.9505,0.9509,0.9505,0.9472,0.9472,0.9463,0.9463,0.9463]}]]